This is the latest recevied weather packets stored in our database for station/object KK4WXG. If no packets are shown the sender has not sent any weather packets the latest 10 day(s).
| Time | Temp. | Humidity | Pressure | Rain* | Wind** | Luminosity | Snow |
|---|---|---|---|---|---|---|---|
| 1777755188 | 13.89° C | 46% | 1011.8 hPa | 0 mm | - | 316 W/m² | - |
| 1777754886 | 13.89° C | 42% | 1011.6 hPa | 0 mm | - | 267 W/m² | - |
| 1777754583 | 15° C | 40% | 1011.6 hPa | 0 mm | - | 299 W/m² | - |
| 1777754280 | 15° C | 42% | 1011.6 hPa | 0 mm | - | 705 W/m² | - |
| 1777753978 | 14.44° C | 43% | 1011.6 hPa | 0 mm | - | 808 W/m² | - |
| 1777753678 | 13.33° C | 42% | 1011.8 hPa | 0 mm | - | 350 W/m² | - |
| 1777753376 | 13.89° C | 44% | 1011.5 hPa | 0 mm | - | 274 W/m² | - |
| 1777753074 | 13.89° C | 44% | 1011.6 hPa | 0 mm | - | 271 W/m² | - |
| 1777752775 | 13.89° C | 42% | 1011.8 hPa | 0 mm | - | 306 W/m² | - |
| 1777752471 | 14.44° C | 43% | 1011.7 hPa | 0 mm | - | 956 W/m² | - |
| 1777752167 | 14.44° C | 42% | 1011.8 hPa | 0 mm | - | 499 W/m² | - |
| 1777751866 | 13.89° C | 51% | 1011.9 hPa | 0 mm | - | 599 W/m² | - |
| 1777751562 | 13.89° C | 43% | 1012.1 hPa | 0 mm | - | 354 W/m² | - |
| 1777751258 | 13.33° C | 44% | 1011.9 hPa | 0 mm | - | 299 W/m² | - |
| 1777750956 | 13.33° C | 44% | 1011.9 hPa | 0 mm | - | 253 W/m² | - |
| 1777750651 | 13.89° C | 42% | 1012.2 hPa | 0 mm | - | 224 W/m² | - |
| 1777750349 | 15° C | 39% | 1012.3 hPa | 0 mm | - | 614 W/m² | - |
| 1777750049 | 15° C | 51% | 1012.2 hPa | 0 mm | - | 981 W/m² | - |
| 1777749747 | 13.89° C | 42% | 1012.2 hPa | 0 mm | - | 972 W/m² | - |
| 1777749443 | 13.89° C | 42% | 1012.4 hPa | 0 mm | - | 359 W/m² | - |
| 1777749141 | 13.89° C | 41% | 1012.5 hPa | 0 mm | - | 308 W/m² | - |
| 1777748838 | 13.89° C | 41% | 1012.6 hPa | 0 mm | - | 289 W/m² | - |
| 1777748536 | 14.44° C | 40% | 1012.6 hPa | 0 mm | - | 347 W/m² | - |
| 1777748235 | 15° C | 39% | 1012.5 hPa | 0 mm | - | 319 W/m² | - |
| 1777747932 | 15.56° C | 41% | 1012.7 hPa | 0 mm | - | 810 W/m² | - |
* Rain latest hour (hover to see other rain measurements)
** Current wind speed in m/s (hover to see current wind gust speed)